Date String (YYYY-MM-DD hh:mm:ss) UTC,Instrument flags,Ambient pressure (hPa),Sample flow (lpm),Bypass flow (lpm),Sample temperature (°C),Ambient temperature (°C),ASC tube jacket temperature (°C),LED temperature (°C),Box temperature (°C),Sample RH (%),Span deviation,Mass concentration (μg/m³),Mass concentration (μg/m³),Mass concentration (μg/m³)
DateTimeUTC,F1_M11,P_M11,Q1_M11,Q2_M11,T1_M11,T2_M11,T3_M11,T4_M11,T5_M11,U1_M11,ZSPAN_M11,X2_M11,X0_M11,X1_M11
2021-11-09 00:00:00,,0830.7,5.01,0.00,28.2,27.3,00.0,37.2,29.9,14.9,-000.3,0009.66,0017.21,0008.58
2021-11-09 00:01:00,,0830.8,5.01,0.00,28.2,27.3,00.0,37.2,30.0,14.9,0000.3,0009.61,0017.46,0008.58
2021-11-09 00:02:00,,0830.8,4.99,0.00,28.2,27.4,00.0,37.2,30.0,14.9,0000.3,0009.55,0017.21,0008.58
2021-11-09 00:03:00,,0830.7,5.00,0.00,28.2,27.3,00.0,37.2,29.9,14.9,0000.5,0009.54,0017.22,0008.58
2021-11-09 00:04:00,,0830.8,4.99,0.00,28.2,27.3,00.0,37.2,29.9,14.9,0000.4,0009.53,0017.77,0008.59
2021-11-09 00:05:00,,0830.8,5.00,0.00,28.2,27.3,00.0,37.2,29.9,14.9,0000.2,0009.48,0018.68,0008.58
2021-11-09 00:06:00,,0830.7,5.00,0.00,28.2,27.3,00.0,37.2,29.9,14.9,0000.3,0009.46,0019.08,0008.59
2021-11-09 00:07:00,,0830.8,5.00,0.00,28.2,27.3,00.0,37.2,29.9,14.9,0000.6,0009.47,0018.73,0008.61
2021-11-09 00:08:00,,0830.8,5.01,0.00,28.2,27.3,00.0,37.2,29.9,14.9,0000.6,0009.51,0019.62,0008.63
2021-11-09 00:09:00,,0830.8,4.99,0.00,28.1,27.3,00.0,37.2,29.9,14.9,0000.6,0009.55,0019.51,0008.65
2021-11-09 00:10:00,,0830.8,4.99,0.00,28.1,27.3,00.0,37.2,29.9,15.0,0000.4,0009.60,0019.57,0008.66
2021-11-09 00:11:00,,0830.8,5.01,0.00,28.1,27.3,00.0,37.2,29.8,15.0,0000.7,0009.61,0018.95,0008.65
2021-11-09 00:12:00,,0830.9,5.00,0.00,28.1,27.3,00.0,37.2,29.8,15.0,0000.7,0009.65,0018.79,0008.64
2021-11-09 00:13:00,,0830.9,4.99,0.00,28.1,27.3,00.0,37.2,29.8,15.0,0000.8,0009.66,0019.15,0008.63
2021-11-09 00:14:00,,0830.9,5.00,0.00,28.1,27.2,00.0,37.1,29.8,15.0,0001.2,0009.74,0019.83,0008.63
2021-11-09 00:15:00,,0830.9,5.00,0.00,28.0,27.2,00.0,37.1,29.7,15.0,0000.8,0009.77,0019.66,0008.62
2021-11-09 00:16:00,,0830.8,5.02,0.00,28.0,27.2,00.0,37.1,29.7,15.0,0001.1,0009.76,0019.54,0008.61
2021-11-09 00:17:00,,0830.7,5.01,0.00,28.0,27.2,00.0,37.1,29.8,15.0,0000.9,0009.74,0019.18,0008.58
2021-11-09 00:18:00,,0830.8,5.00,0.00,28.0,27.2,00.0,37.1,29.8,15.0,0000.5,0009.70,0018.86,0008.52
2021-11-09 00:19:00,,0830.9,4.99,0.00,28.1,27.2,00.0,37.1,29.8,15.0,0000.9,0009.62,0017.68,0008.45
2021-11-09 00:20:00,,0831.0,5.01,0.00,28.0,27.2,00.0,37.1,29.8,15.0,0001.1,0009.50,0017.54,0008.39
2021-11-09 00:21:00,,0831.0,4.99,0.00,28.0,27.2,00.0,37.1,29.8,15.0,0001.3,0009.47,0018.72,0008.34
2021-11-09 00:22:00,,0830.9,5.01,0.00,28.0,27.2,00.0,37.1,29.8,15.1,0001.5,0009.44,0019.56,0008.30
2021-11-09 00:23:00,,0830.9,4.99,0.00,28.0,27.2,00.0,37.1,29.8,15.1,0001.3,0009.39,0019.39,0008.25
2021-11-09 00:24:00,,0830.7,5.01,0.00,28.0,27.2,00.0,37.1,29.8,15.1,0001.4,0009.39,0019.55,0008.21
2021-11-09 00:25:00,,0830.8,4.98,0.00,28.0,27.2,00.0,37.1,29.8,15.1,0001.2,0009.28,0019.30,0008.17
2021-11-09 00:26:00,,0830.8,5.00,0.00,28.0,27.1,00.0,37.1,29.8,15.1,0002.1,0009.21,0019.32,0008.12
2021-11-09 00:27:00,,0830.9,4.99,0.00,28.0,27.1,00.0,37.1,29.8,15.1,0002.1,0009.18,0018.44,0008.08
2021-11-09 00:28:00,,0831.0,5.00,0.00,28.0,27.1,00.0,37.1,29.8,15.1,0001.7,0009.15,0018.54,0008.06
2021-11-09 00:29:00,,0830.9,5.00,0.00,28.0,27.2,00.0,37.1,29.8,15.1,0001.3,0009.16,0018.99,0008.05
2021-11-09 00:30:00,,0831.0,5.01,0.00,28.0,27.2,00.0,37.1,29.8,15.1,0001.2,0009.20,0019.53,0008.05
2021-11-09 00:31:00,,0830.9,5.01,0.00,28.0,27.2,00.0,37.0,29.8,15.1,0001.2,0009.23,0019.41,0008.06
2021-11-09 00:32:00,,0830.8,4.98,0.00,28.0,27.2,00.0,37.0,29.8,15.1,0001.0,0009.21,0018.63,0008.07
2021-11-09 00:33:00,,0830.8,5.00,0.00,28.0,27.2,00.0,37.0,29.8,15.1,0000.4,0009.20,0017.88,0008.07
2021-11-09 00:34:00,,0830.9,5.00,0.00,28.0,27.2,00.0,37.0,29.8,15.1,0000.2,0009.20,0017.70,0008.06
2021-11-09 00:35:00,,0831.0,4.99,0.00,28.0,27.2,00.0,37.0,29.8,15.1,-000.2,0009.17,0018.26,0008.06
2021-11-09 00:36:00,,0830.9,5.01,0.00,28.0,27.2,00.0,37.0,29.7,15.1,-000.4,0009.20,0018.06,0008.08
2021-11-09 00:37:00,,0830.9,4.99,0.00,28.0,27.2,00.0,37.0,29.7,15.1,-000.5,0009.27,0017.76,0008.09
2021-11-09 00:38:00,,0830.9,5.01,0.00,28.0,27.2,00.0,37.0,29.7,15.1,-000.5,0009.27,0017.95,0008.11
2021-11-09 00:39:00,,0830.9,5.00,0.00,28.0,27.2,00.0,37.0,29.7,15.1,-000.3,0009.27,0017.66,0008.11
2021-11-09 00:40:00,,0830.9,4.99,0.00,28.0,27.2,00.0,37.0,29.7,15.1,-000.2,0009.28,0017.90,0008.11
2021-11-09 00:41:00,,0830.9,5.00,0.00,28.0,27.2,00.0,37.0,29.7,15.1,-000.3,0009.30,0017.67,0008.13
2021-11-09 00:42:00,,0830.9,5.00,0.00,28.0,27.2,00.0,37.0,29.7,15.1,-000.2,0009.29,0017.50,0008.14
2021-11-09 00:43:00,,0830.9,5.01,0.00,28.0,27.1,00.0,37.0,29.7,15.1,0000.3,0009.27,0017.28,0008.16
2021-11-09 00:44:00,,0830.7,4.99,0.00,28.0,27.1,00.0,37.0,29.7,15.1,0000.6,0009.27,0017.36,0008.19
2021-11-09 00:45:00,,0830.8,5.00,0.00,28.0,27.1,00.0,37.0,29.7,15.1,0001.0,0009.24,0017.99,0008.21
2021-11-09 00:46:00,,0830.8,5.01,0.00,28.0,27.1,00.0,37.0,29.8,15.1,0001.3,0009.30,0017.24,0008.23
2021-11-09 00:47:00,,0830.8,5.01,0.00,28.0,27.1,00.0,37.0,29.8,15.1,0001.5,0009.32,0017.33,0008.25
2021-11-09 00:48:00,,0830.8,5.00,0.00,28.0,27.1,00.0,37.0,29.8,15.1,0001.3,0009.35,0017.65,0008.29
2021-11-09 00:49:00,,0830.7,4.98,0.00,28.0,27.2,00.0,37.0,29.8,15.1,0001.2,0009.41,0017.52,0008.35
2021-11-09 00:50:00,,0830.6,5.00,0.00,28.0,27.2,00.0,37.0,29.8,15.1,0001.5,0009.46,0018.59,0008.41
2021-11-09 00:51:00,,0830.7,5.00,0.00,28.0,27.2,00.0,37.0,29.8,15.1,0001.8,0009.44,0018.39,0008.46
2021-11-09 00:52:00,,0830.8,5.00,0.00,28.0,27.2,00.0,37.0,29.8,15.1,0001.5,0009.45,0017.85,0008.50
2021-11-09 00:53:00,,0830.8,5.00,0.00,28.0,27.2,00.0,37.0,29.8,15.1,0001.5,0009.47,0017.83,0008.54
2021-11-09 00:54:00,,0830.9,4.99,0.00,28.0,27.2,00.0,37.0,29.8,15.1,0001.4,0009.50,0018.26,0008.55
2021-11-09 00:55:00,,0830.9,5.00,0.00,28.0,27.2,00.0,37.0,29.8,15.1,0001.1,0009.52,0017.78,0008.56
2021-11-09 00:56:00,,0830.9,4.99,0.00,28.0,27.2,00.0,37.0,29.8,15.1,0001.3,0009.56,0017.12,0008.58
2021-11-09 00:57:00,,0830.9,4.98,0.00,28.0,27.2,00.0,37.0,29.8,15.1,0001.5,0009.52,0016.63,0008.60
2021-11-09 00:58:00,,0830.9,5.01,0.00,28.0,27.2,00.0,37.0,29.8,15.1,0001.6,0009.51,0016.24,0008.60
2021-11-09 00:59:00,,0830.9,5.00,0.00,28.0,27.2,00.0,37.0,29.8,15.1,0001.7,0009.48,0015.87,0008.60
